STARLINK-3393, 51132

Orbit data source: Space-Track

STARLINK-3393, 51132 is a payload satellite owned by SpaceX/Seattle (US) in LEO that was launched on Wed, 19 Jan 2022 UTC via an FALCON 9 launch vehicle from the Air Force Eastern Test Range (AFETR). Payload-class satellites include a variety of spacecraft equipped with specific instruments for various scientific and technological missions. These include communications satellites like Starlink; space stations such as the ISS; scientific satellites like the Hubble; Earth observation satellites from companies like Planet Labs, Umbra, and HawkEye 360; GPS; miniature CubeSats for education and research; and military/defense satellites.

Loading next visibility...
Identifier
51132, 2022-005AE
Orbit
LEO
Country
Flag of USUS
Related business
Manufacturer
SpaceX/Seattle
Mission
Operational Commercial Communications
Bus & Motor
STARLINK, Unknown motor
Mass
297 kg wet, ~275 kg dry
Launch date (UTC)
2022-01-19 (4 years ago)
Launch vehicle
FALCON 9
Launch site
Air Force Eastern Test Range (AFETR)
Object type
Payload
Rocket body
Debris
Shape & HBR
Box + 1 Pan, 10.1 m
Radar Cross Section
13.562 m², Large (>1 m²)

Expand to show TLE details & history
Last TLE update: 18 hours ago

TLE from 18 hours ago
0 STARLINK-3393
1 51132U 22005AE  26094.24471662 -.00000255  00000-0  20678-5 0  9995
2 51132  53.2162 184.4003 0001401  86.5902 273.5251 15.08836412232582
Epoch: 2026-04-04T05:52Z
TLE epoch observation values (Epoch: 2026-04-04T05:52:23.515Z)
Latitude
Longitude
-96.26495°
Altitude
540.592 km
Speed
7.593 km/s
True Right ascension
12h 17m 36s
True Declination
0° 00' 00"
Sunlit
Object was in full shadow at epoch
Visualization orbit readout
Latitude
Unknown
Longitude
Unknown
Altitude
Unknown
Speed
Unknown
Apparent Right ascension
Unknown
Apparent Declination
Unknown
Sunlit
N/A
Visualization observer readout
Local Sidereal Time
05:47:09
Azimuth
Unknown
Elevation
Unknown
Doppler factor
Unknown
Orbital elements
Apogee altitude
540.969 km
Perigee altitude
539.03 km
Semi-major axis
6,918.136 km
Eccentricity
0.00014
Inclination
53.2162°
RAAN
184.4003°
Arg. of periapsis
86.5902°
True anomaly
273.50908°
Mean anomaly
273.5251°
Eccentric anomaly
273.51709°
Mean motion
3.77189 °/min
Orbital period
95.44 mins
BSTAR
0.0000020678
Loading maneuver chart data...
Computing Atmospheric mass density...
Loading historical data...
Loading historical data...
Loading historical data...
Loading historical data...
Loading historical data...
Loading historical data...
Loading historical data...

Documentation

Showing up to 5 results
|